Showing default

ICEYE-X57, 64578

Orbit data source: Space-Track

ICEYE-X57, 64578 is a payload satellite owned by ICEYE US (US) in SSO that was launched on Mon, 23 Jun 2025 UTC via an FALCON 9 launch vehicle from the Air Force Western Test Range (AFWTR). Payload-class satellites include a variety of spacecraft equipped with specific instruments for various scientific and technological missions. These include communications satellites like Starlink; space stations such as the ISS; scientific satellites like the Hubble; Earth observation satellites from companies like Planet Labs, Umbra, and HawkEye 360; GPS; miniature CubeSats for education and research; and military/defense satellites.

Loading next visibility...
Identifier
64578, 2025-135BC
Orbit
SSO
Country
Flag of USUS
Related business
Manufacturer
ICEYE
Mission
Operational Commercial Radar Imaging
Bus & Motor
ICEYE, Unknown motor
Mass
80 kg wet, 80 kg dry
Launch date (UTC)
2025-06-23 (10 months ago)
Launch vehicle
FALCON 9
Launch site
Air Force Western Test Range (AFWTR)
Object type
Payload
Rocket body
Debris
Shape & HBR
Box + 1 Pan, 0.8 m
Radar Cross Section
0.776 m², Medium (>0.1 m² and < 1m²)

Expand to show TLE details & history
Last TLE update: 7 hours ago

TLE from 7 hours ago
0 ICEYE-X57
1 64578U 25135BC  26120.26452822  .00004926  00000-0  39195-3 0  9999
2 64578  97.7793 236.6317 0002050  47.7379 312.4018 15.00867079 46839
Epoch: 2026-04-30T06:20Z
TLE epoch observation values (Epoch: 2026-04-30T06:20:55.238Z)
Latitude
-0.00003°
Longitude
-76.81208°
Altitude
566.315 km
Speed
7.578 km/s
True Right ascension
15h 46m 31s
True Declination
0° 00' 00"
Sunlit
Object was in full shadow at epoch
Visualization orbit readout
Latitude
Unknown
Longitude
Unknown
Altitude
Unknown
Speed
Unknown
Apparent Right ascension
Unknown
Apparent Declination
Unknown
Sunlit
N/A
Visualization observer readout
Local Sidereal Time
21:07:37
Azimuth
Unknown
Elevation
Unknown
Doppler factor
Unknown
Orbital elements
Apogee altitude
562.651 km
Perigee altitude
559.806 km
Semi-major axis
6,939.366 km
Eccentricity
0.00021
Inclination
97.7793°
RAAN
236.6317°
Arg. of periapsis
47.7379°
True anomaly
312.38445°
Mean anomaly
312.4018°
Eccentric anomaly
312.39313°
Mean motion
3.7546 °/min
Orbital period
95.88 mins
BSTAR
0.00039195
Loading maneuver chart data...
Computing Atmospheric mass density...
Loading historical data...
Loading historical data...
Loading historical data...
Loading historical data...
Loading historical data...
Loading historical data...
Loading historical data...

Documentation

Showing up to 5 results
|